Weather History for Boulmer, United Kingdom

Change the Weather History Date:

Wednesday, January 2, 2013

  Actual Average Record
Temperature  
Mean Temperature 46 °F -  
Max Temperature 52 °F - - ()
Min Temperature 39 °F - - ()
Degree Days  
Heating Degree Days 20    
Moisture  
Dew Point 43 °F    
Average Humidity 88    
Maximum Humidity 100    
Minimum Humidity 73    
Precipitation  
Precipitation 0.12 in - - ()
Sea Level Pressure  
Sea Level Pressure 29.99 in    
Wind  
Wind Speed 11 mph ()    
Max Wind Speed 24 mph    
Max Gust Speed -    
Visibility 6.4 miles    
Events Rain    
T = Trace of Precipitation, MM = Missing Value Source: Averaged Metar Reports

Daily Weather History Graph

Daily Weather History Graph

Search for Another Location

Airport:

Trip Planner

Search our weather history database for the weather conditions in past years. The results will help you decide how hot, cold, wet, or windy it might be!

Date:

Astronomy

Jan. 02, 2013 Rise Set
Actual Time 8:33 AM GMT 3:47 PM GMT
Civil Twilight 7:47 AM GMT 4:33 PM GMT
Nautical Twilight 7:00 AM GMT 5:21 PM GMT
Astronomical Twilight 6:15 AM GMT 6:05 PM GMT
Moon 10:06 PM GMT (1/2) 10:11 AM GMT (1/2)
Length of Visible Light 8h 45m
Length of Day
7h 14m
Waning Gibbous, 77% of the Moon is Illuminated
Jan 2
Waning Gibbous
Jan 5
Last Quarter
Jan 11
New
Jan 18
First Quarter
Jan 27
Full

Hourly Weather History & Observations

Time (GMT) Temp. Windchill Dew Point Humidity Pressure Visibility Wind Dir Wind Speed Gust Speed Precip Events Conditions
12:50 AM 39.2 °F 32.5 °F 35.6 °F 87% 29.92 in 6.2 mi WSW 10.4 mph - N/A   Mostly Cloudy
1:50 AM 41.0 °F 34.7 °F 35.6 °F 81% 29.92 in 6.2 mi West 10.4 mph - N/A   Overcast
2:50 AM 41 °F - 35 °F 73% 29.97 in 28 mi West 10.4 mph - -   Partly Cloudy
2:50 AM 41.0 °F 34.7 °F 35.6 °F 81% 29.95 in 6.2 mi West 10.4 mph - N/A   Scattered Clouds
3:50 AM 39.2 °F 33.0 °F 35.6 °F 87% 29.98 in 6.2 mi WSW 9.2 mph - N/A   Partly Cloudy
4:50 AM 41.0 °F 34.7 °F 35.6 °F 81% 29.98 in 6.2 mi WSW 10.4 mph - N/A   Mostly Cloudy
5:50 AM 41 °F - 36 °F 77% 29.99 in 22 mi WSW 10.4 mph - -  
5:50 AM 41.0 °F 34.7 °F 35.6 °F 81% 29.98 in 6.2 mi WSW 10.4 mph - N/A   Mostly Cloudy
6:50 AM 42.8 °F 35.8 °F 37.4 °F 81% 30.01 in 6.2 mi West 13.8 mph - N/A Rain Light Rain Showers
7:50 AM 41.0 °F 37.1 °F 39.2 °F 93% 30.01 in 6.2 mi SW 5.8 mph - N/A Rain Rain
8:50 AM 40 °F - 39 °F 96% 30.04 in 5 mi South 6.9 mph - - Rain Rain
8:50 AM 41.0 °F 36.4 °F 39.2 °F 93% 30.01 in 5.0 mi South 6.9 mph - N/A Rain Rain
9:50 AM 41.0 °F 34.3 °F 41.0 °F 100% 30.01 in 3.7 mi South 11.5 mph - N/A Rain Light Rain
10:50 AM 41.0 °F 34.3 °F 41.0 °F 100% 29.98 in 6.2 mi SSE 11.5 mph - N/A   Scattered Clouds
11:50 AM 43 °F - 42 °F 94% 29.98 in 16 mi South 11.5 mph - -   Mostly Cloudy
11:50 AM 42.8 °F 36.6 °F 42.8 °F 100% 29.98 in 6.2 mi South 11.5 mph - N/A   Mostly Cloudy
12:50 PM 48.2 °F - 44.6 °F 87% 29.95 in 6.2 mi SW 10.4 mph - N/A   Scattered Clouds
1:50 PM 50.0 °F - 46.4 °F 87% 29.92 in 6.2 mi SW 11.5 mph - N/A   Partly Cloudy
3:00 PM 50 °F - 47 °F 84%  in - SW 10.4 mph - -  
3:50 PM 50.0 °F - 46.4 °F 87% 29.92 in 6.2 mi WSW 18.4 mph - N/A   Scattered Clouds
4:50 PM 51.8 °F - 48.2 °F 88% 29.95 in 6.2 mi WSW 17.3 mph - N/A   Mostly Cloudy
5:50 PM 52 °F - 48 °F 80% 29.96 in 31 mi WSW 24.2 mph - -   Overcast
5:50 PM 51.8 °F - 48.2 °F 88% 29.95 in 6.2 mi WSW 24.2 mph - N/A   Overcast
6:50 PM 51.8 °F - 48.2 °F 88% 29.98 in 6.2 mi WSW 24.2 mph - N/A   Partly Cloudy
7:50 PM 51.8 °F - 48.2 °F 88% 29.98 in 6.2 mi SW 18.4 mph - N/A   Partly Cloudy
8:50 PM 52 °F - 48 °F 83% 30.03 in 31 mi SW 13.8 mph - -   Partly Cloudy
8:50 PM 51.8 °F - 48.2 °F 88% 30.01 in 6.2 mi SW 13.8 mph - N/A   Scattered Clouds
9:50 PM 51.8 °F - 48.2 °F 88% 30.04 in 6.2 mi SW 11.5 mph - N/A   Mostly Cloudy
10:50 PM 51.8 °F - 50.0 °F 94% 30.04 in 6.2 mi SW 15.0 mph - N/A   Scattered Clouds
11:50 PM 52 °F - 49 °F 86% 30.07 in 31 mi South 8.1 mph - -   Mostly Cloudy
11:50 PM 51.8 °F - 50.0 °F 94% 30.06 in 6.2 mi South 8.1 mph - N/A   Mostly Cloudy